TimeCDT,TemperatureF,Dew PointF,Humidity,Sea Level PressureIn,VisibilityMPH,Wind Direction,Wind SpeedMPH,Gust SpeedMPH,PrecipitationIn,Events,Conditions,WindDirDegrees,DateUTC
12:15 AM,73.4,64.4,73,29.90,10.0,South,11.5,-,N/A,,Clear,170,2013-05-28 05:15:00
12:35 AM,73.4,64.4,73,29.91,10.0,SSE,10.4,-,N/A,,Clear,160,2013-05-28 05:35:00
12:55 AM,73.4,64.4,73,29.90,10.0,SSE,10.4,-,N/A,,Clear,160,2013-05-28 05:55:00
1:15 AM,73.4,64.4,73,29.89,10.0,South,9.2,-,N/A,,Clear,170,2013-05-28 06:15:00
1:35 AM,73.4,64.4,73,29.88,10.0,SSE,9.2,-,N/A,,Clear,160,2013-05-28 06:35:00
1:55 AM,71.6,64.4,78,29.88,10.0,SSE,10.4,-,N/A,,Clear,150,2013-05-28 06:55:00
2:15 AM,71.6,64.4,78,29.87,10.0,SSE,11.5,-,N/A,,Clear,160,2013-05-28 07:15:00
2:35 AM,71.6,64.4,78,29.86,10.0,SSE,11.5,17.3,N/A,,Clear,160,2013-05-28 07:35:00
2:55 AM,71.6,64.4,78,29.86,10.0,South,9.2,16.1,N/A,,Clear,170,2013-05-28 07:55:00
3:15 AM,71.6,64.4,78,29.87,10.0,South,10.4,-,N/A,,Clear,170,2013-05-28 08:15:00
3:35 AM,71.6,64.4,78,29.87,10.0,South,9.2,-,N/A,,Clear,170,2013-05-28 08:35:00
3:55 AM,71.6,64.4,78,29.88,10.0,South,5.8,-,N/A,,Clear,170,2013-05-28 08:55:00
4:15 AM,69.8,64.4,83,29.89,10.0,SSE,6.9,-,N/A,,Clear,160,2013-05-28 09:15:00
4:35 AM,69.8,64.4,83,29.89,10.0,South,6.9,-,N/A,,Clear,170,2013-05-28 09:35:00
4:55 AM,69.8,64.4,83,29.89,10.0,South,8.1,-,N/A,,Clear,170,2013-05-28 09:55:00
5:15 AM,69.8,64.4,83,29.89,10.0,South,8.1,-,N/A,,Clear,170,2013-05-28 10:15:00
5:35 AM,69.8,64.4,83,29.90,10.0,SSE,6.9,-,N/A,,Clear,160,2013-05-28 10:35:00
5:55 AM,68.0,64.4,88,29.90,10.0,SSE,9.2,-,N/A,,Clear,160,2013-05-28 10:55:00
6:15 AM,68.0,64.4,88,29.91,10.0,South,8.1,-,N/A,,Clear,170,2013-05-28 11:15:00
6:35 AM,68.0,64.4,88,29.91,10.0,SSE,8.1,-,N/A,,Clear,160,2013-05-28 11:35:00
6:55 AM,68.0,64.4,88,29.91,10.0,South,6.9,-,N/A,,Clear,170,2013-05-28 11:55:00
7:15 AM,69.8,64.4,83,29.91,10.0,SSE,9.2,-,N/A,,Scattered Clouds,160,2013-05-28 12:15:00
7:35 AM,69.8,64.4,83,29.91,10.0,SSE,6.9,16.1,N/A,,Overcast,160,2013-05-28 12:35:00
7:55 AM,69.8,66.2,88,29.92,10.0,South,11.5,-,N/A,,Overcast,170,2013-05-28 12:55:00
8:15 AM,71.6,64.4,78,29.92,10.0,South,12.7,17.3,N/A,,Overcast,180,2013-05-28 13:15:00
8:35 AM,71.6,66.2,83,29.93,10.0,South,11.5,20.7,N/A,,Overcast,190,2013-05-28 13:35:00
8:55 AM,71.6,64.4,78,29.93,10.0,South,16.1,21.9,N/A,,Overcast,190,2013-05-28 13:55:00
9:15 AM,73.4,66.2,78,29.94,10.0,SSW,10.4,17.3,N/A,,Overcast,200,2013-05-28 14:15:00
9:35 AM,73.4,66.2,78,29.95,10.0,SSW,11.5,19.6,N/A,,Mostly Cloudy,200,2013-05-28 14:35:00
9:55 AM,75.2,64.4,69,29.94,10.0,SSW,13.8,19.6,N/A,,Mostly Cloudy,200,2013-05-28 14:55:00
10:15 AM,77.0,66.2,69,29.94,10.0,SW,18.4,21.9,N/A,,Mostly Cloudy,220,2013-05-28 15:15:00
10:35 AM,77.0,64.4,65,29.94,10.0,SSW,15.0,18.4,N/A,,Scattered Clouds,210,2013-05-28 15:35:00
10:55 AM,78.8,64.4,61,29.94,10.0,SSW,13.8,20.7,N/A,,Scattered Clouds,210,2013-05-28 15:55:00
11:15 AM,78.8,64.4,61,29.94,10.0,South,16.1,-,N/A,,Scattered Clouds,190,2013-05-28 16:15:00
11:35 AM,78.8,64.4,61,29.94,10.0,SSW,13.8,19.6,N/A,,Scattered Clouds,200,2013-05-28 16:35:00
11:55 AM,80.6,64.4,58,29.94,10.0,SSW,16.1,24.2,N/A,,Scattered Clouds,200,2013-05-28 16:55:00
12:15 PM,80.6,64.4,58,29.94,10.0,South,16.1,19.6,N/A,,Scattered Clouds,170,2013-05-28 17:15:00
12:35 PM,82.4,64.4,54,29.94,10.0,South,18.4,25.3,N/A,,Scattered Clouds,190,2013-05-28 17:35:00
12:55 PM,82.4,62.6,51,29.94,10.0,SSW,15.0,19.6,N/A,,Scattered Clouds,200,2013-05-28 17:55:00
1:15 PM,82.4,64.4,54,29.94,10.0,South,15.0,19.6,N/A,,Clear,190,2013-05-28 18:15:00
1:35 PM,82.4,62.6,51,29.93,10.0,South,12.7,20.7,N/A,,Clear,190,2013-05-28 18:35:00
1:55 PM,82.4,64.4,54,29.92,10.0,South,15.0,-,N/A,,Clear,180,2013-05-28 18:55:00
2:15 PM,84.2,62.6,48,29.91,10.0,South,10.4,18.4,N/A,,Clear,190,2013-05-28 19:15:00
2:35 PM,84.2,62.6,48,29.92,10.0,South,12.7,19.6,N/A,,Scattered Clouds,190,2013-05-28 19:35:00
2:55 PM,82.4,64.4,54,29.91,10.0,South,12.7,18.4,N/A,,Scattered Clouds,180,2013-05-28 19:55:00
3:15 PM,82.4,64.4,54,29.91,10.0,South,13.8,18.4,N/A,,Scattered Clouds,190,2013-05-28 20:15:00
3:35 PM,84.2,62.6,48,29.91,10.0,South,15.0,20.7,N/A,,Scattered Clouds,170,2013-05-28 20:35:00
3:55 PM,82.4,64.4,54,29.90,10.0,South,13.8,17.3,N/A,,Scattered Clouds,170,2013-05-28 20:55:00
4:15 PM,84.2,62.6,48,29.89,10.0,South,12.7,17.3,N/A,,Clear,170,2013-05-28 21:15:00
4:35 PM,84.2,62.6,48,29.88,10.0,SSE,12.7,18.4,N/A,,Clear,160,2013-05-28 21:35:00
4:55 PM,84.2,62.6,48,29.88,10.0,SSE,10.4,20.7,N/A,,Clear,160,2013-05-28 21:55:00
5:15 PM,86.0,64.4,48,29.87,10.0,SSE,13.8,17.3,N/A,,Clear,160,2013-05-28 22:15:00
5:35 PM,84.2,62.6,48,29.87,10.0,South,15.0,20.7,N/A,,Clear,170,2013-05-28 22:35:00
5:55 PM,82.4,62.6,51,29.86,10.0,SSE,10.4,-,N/A,,Clear,150,2013-05-28 22:55:00
6:15 PM,82.4,64.4,54,29.86,10.0,SSE,10.4,17.3,N/A,,Clear,150,2013-05-28 23:15:00
6:35 PM,82.4,64.4,54,29.85,10.0,SSE,9.2,-,N/A,,Clear,150,2013-05-28 23:35:00
6:55 PM,82.4,64.4,54,29.86,10.0,SSE,9.2,-,N/A,,Clear,160,2013-05-28 23:55:00
7:15 PM,80.6,64.4,58,29.85,10.0,SSE,9.2,-,N/A,,Clear,150,2013-05-29 00:15:00
7:35 PM,80.6,64.4,58,29.85,10.0,SE,10.4,-,N/A,,Clear,140,2013-05-29 00:35:00
7:55 PM,78.8,62.6,57,29.85,10.0,SE,8.1,-,N/A,,Clear,140,2013-05-29 00:55:00
8:15 PM,78.8,62.6,57,29.85,10.0,SE,6.9,-,N/A,,Clear,140,2013-05-29 01:15:00
8:35 PM,77.0,62.6,61,29.85,10.0,SE,8.1,-,N/A,,Clear,140,2013-05-29 01:35:00
8:55 PM,77.0,62.6,61,29.84,10.0,SE,8.1,-,N/A,,Clear,130,2013-05-29 01:55:00
9:15 PM,75.2,62.6,65,29.85,10.0,ESE,6.9,-,N/A,,Clear,120,2013-05-29 02:15:00
9:35 PM,75.2,64.4,69,29.85,10.0,SE,10.4,-,N/A,,Clear,130,2013-05-29 02:35:00
9:55 PM,75.2,64.4,69,29.85,10.0,SE,11.5,-,N/A,,Clear,130,2013-05-29 02:55:00
10:15 PM,75.2,64.4,69,29.85,10.0,SE,9.2,-,N/A,,Clear,140,2013-05-29 03:15:00
10:35 PM,75.2,64.4,69,29.86,10.0,SSE,12.7,-,N/A,,Clear,150,2013-05-29 03:35:00
10:55 PM,75.2,64.4,69,29.86,10.0,SE,12.7,-,N/A,,Clear,140,2013-05-29 03:55:00
11:15 PM,73.4,64.4,73,29.87,10.0,SSE,9.2,17.3,N/A,,Clear,150,2013-05-29 04:15:00
11:35 PM,73.4,64.4,73,29.86,10.0,SSE,11.5,-,N/A,,Clear,150,2013-05-29 04:35:00
11:55 PM,73.4,64.4,73,29.86,10.0,SSE,10.4,-,N/A,,Clear,160,2013-05-29 04:55:00